Time,TemperatureF,DewpointF,PressureIn,WindDirection,WindDirectionDegrees,WindSpeedMPH,WindSpeedGustMPH,Humidity,HourlyPrecipIn,Conditions,Clouds,dailyrainin,SoftwareType,DateUTC
2013-02-11 00:01:00,55.3,53.3,29.87,West,259,4.0,5.0,93,0.00,,,0.37,Wunderground v.1.15,2013-02-11 06:01:00,
2013-02-11 00:06:00,55.1,53.1,29.87,West,278,3.0,5.0,93,0.00,,,0.00,Wunderground v.1.15,2013-02-11 06:06:00,
2013-02-11 00:12:00,55.0,53.0,29.88,WSW,255,3.0,7.0,93,0.00,,,0.00,Wunderground v.1.15,2013-02-11 06:12:00,
2013-02-11 00:18:00,54.9,52.9,29.87,West,273,7.0,7.0,93,0.00,,,0.00,Wunderground v.1.15,2013-02-11 06:18:00,
2013-02-11 00:24:00,54.7,52.7,29.88,WNW,285,2.0,6.0,93,0.00,,,0.00,Wunderground v.1.15,2013-02-11 06:24:00,
2013-02-11 00:30:00,54.5,52.5,29.88,WSW,251,2.0,4.0,93,0.00,,,0.00,Wunderground v.1.15,2013-02-11 06:30:00,
2013-02-11 00:36:00,54.3,52.3,29.88,West,269,5.0,5.0,93,0.00,,,0.00,Wunderground v.1.15,2013-02-11 06:36:00,
2013-02-11 00:42:00,54.2,52.2,29.89,West,271,3.0,6.0,93,0.00,,,0.00,Wunderground v.1.15,2013-02-11 06:42:00,
2013-02-11 00:47:00,54.1,51.8,29.89,West,259,7.0,7.0,92,0.00,,,0.00,Wunderground v.1.15,2013-02-11 06:47:00,
2013-02-11 00:53:00,53.9,51.3,29.89,WSW,239,6.0,6.0,91,0.00,,,0.00,Wunderground v.1.15,2013-02-11 06:53:00,
2013-02-11 00:59:00,54.0,50.5,29.89,West,277,4.0,6.0,88,0.00,,,0.00,Wunderground v.1.15,2013-02-11 06:59:00,
2013-02-11 01:04:00,53.9,49.8,29.90,West,274,4.0,7.0,86,0.00,,,0.00,Wunderground v.1.15,2013-02-11 07:04:00,
2013-02-11 01:10:00,53.9,49.2,29.90,SW,236,4.0,4.0,84,0.00,,,0.00,Wunderground v.1.15,2013-02-11 07:10:00,
2013-02-11 01:16:00,53.8,48.8,29.90,West,271,2.0,6.0,83,0.00,,,0.00,Wunderground v.1.15,2013-02-11 07:16:00,
2013-02-11 01:22:00,53.5,48.1,29.91,WNW,291,3.0,4.0,82,0.00,,,0.00,Wunderground v.1.15,2013-02-11 07:22:00,
2013-02-11 01:28:00,53.2,47.2,29.91,WNW,294,7.0,7.0,80,0.00,,,0.00,Wunderground v.1.15,2013-02-11 07:28:00,
2013-02-11 01:33:00,53.3,46.6,29.91,West,262,5.0,5.0,78,0.00,,,0.00,Wunderground v.1.15,2013-02-11 07:33:00,
2013-02-11 01:39:00,53.1,45.7,29.91,West,278,2.0,5.0,76,0.00,,,0.00,Wunderground v.1.15,2013-02-11 07:39:00,
2013-02-11 01:45:00,52.9,45.2,29.91,WNW,297,4.0,5.0,75,0.00,,,0.00,Wunderground v.1.15,2013-02-11 07:45:00,
2013-02-11 01:51:00,52.7,44.3,29.92,West,278,3.0,4.0,73,0.00,,,0.00,Wunderground v.1.15,2013-02-11 07:51:00,
2013-02-11 01:56:00,52.9,43.0,29.92,West,263,3.0,7.0,69,0.00,,,0.00,Wunderground v.1.15,2013-02-11 07:56:00,
2013-02-11 02:01:00,52.9,42.2,29.92,NW,304,5.0,6.0,67,0.00,,,0.00,Wunderground v.1.15,2013-02-11 08:01:00,
2013-02-11 02:06:00,52.8,41.4,29.92,WNW,285,8.0,10.0,65,0.00,,,0.00,Wunderground v.1.15,2013-02-11 08:06:00,
2013-02-11 02:11:00,52.6,40.4,29.91,WNW,293,8.0,8.0,63,0.00,,,0.00,Wunderground v.1.15,2013-02-11 08:11:00,
2013-02-11 02:16:00,52.4,39.3,29.92,WSW,250,4.0,12.0,61,0.00,,,0.00,Wunderground v.1.15,2013-02-11 08:16:00,
2013-02-11 02:21:00,52.4,38.9,29.92,WNW,295,5.0,7.0,60,0.00,,,0.00,Wunderground v.1.15,2013-02-11 08:21:00,
2013-02-11 02:26:00,52.2,38.3,29.92,West,277,4.0,9.0,59,0.00,,,0.00,Wunderground v.1.15,2013-02-11 08:26:00,
2013-02-11 02:31:00,52.0,37.7,29.92,WSW,257,5.0,8.0,58,0.00,,,0.00,Wunderground v.1.15,2013-02-11 08:31:00,
2013-02-11 02:36:00,51.7,36.9,29.92,West,259,5.0,10.0,57,0.00,,,0.00,Wunderground v.1.15,2013-02-11 08:36:00,
2013-02-11 02:41:00,51.7,36.5,29.92,West,280,6.0,14.0,56,0.00,,,0.00,Wunderground v.1.15,2013-02-11 08:41:00,
2013-02-11 02:47:00,51.5,35.9,29.92,WNW,285,9.0,14.0,55,0.00,,,0.00,Wunderground v.1.15,2013-02-11 08:47:00,
2013-02-11 02:52:00,51.4,35.8,29.92,WNW,282,6.0,11.0,55,0.00,,,0.00,Wunderground v.1.15,2013-02-11 08:52:00,
2013-02-11 02:57:00,51.4,35.3,29.92,West,281,4.0,11.0,54,0.00,,,0.00,Wunderground v.1.15,2013-02-11 08:57:00,
2013-02-11 03:02:00,51.2,34.6,29.93,WNW,293,6.0,12.0,53,0.00,,,0.00,Wunderground v.1.15,2013-02-11 09:02:00,
2013-02-11 03:08:00,51.0,34.5,29.93,West,276,4.0,12.0,53,0.00,,,0.00,Wunderground v.1.15,2013-02-11 09:08:00,
2013-02-11 03:13:00,50.8,34.7,29.93,West,260,7.0,12.0,54,0.00,,,0.00,Wunderground v.1.15,2013-02-11 09:13:00,
2013-02-11 03:18:00,50.7,34.6,29.93,WNW,288,4.0,12.0,54,0.00,,,0.00,Wunderground v.1.15,2013-02-11 09:18:00,
2013-02-11 03:23:00,50.4,34.8,29.93,WNW,295,5.0,6.0,55,0.00,,,0.00,Wunderground v.1.15,2013-02-11 09:23:00,
2013-02-11 03:28:00,49.9,35.3,29.94,West,271,2.0,7.0,57,0.00,,,0.00,Wunderground v.1.15,2013-02-11 09:28:00,
2013-02-11 03:33:00,49.6,35.0,29.94,WNW,287,5.0,8.0,57,0.00,,,0.00,Wunderground v.1.15,2013-02-11 09:33:00,
2013-02-11 03:38:00,49.5,35.3,29.94,WNW,283,5.0,8.0,58,0.00,,,0.00,Wunderground v.1.15,2013-02-11 09:38:00,
2013-02-11 03:43:00,49.1,35.4,29.95,WSW,255,6.0,6.0,59,0.00,,,0.00,Wunderground v.1.15,2013-02-11 09:43:00,
2013-02-11 03:48:00,49.1,34.9,29.95,WNW,298,7.0,12.0,58,0.00,,,0.00,Wunderground v.1.15,2013-02-11 09:48:00,
2013-02-11 03:53:00,48.9,34.8,29.95,WNW,297,4.0,8.0,58,0.00,,,0.00,Wunderground v.1.15,2013-02-11 09:53:00,
2013-02-11 03:58:00,48.7,34.6,29.96,West,277,7.0,9.0,58,0.00,,,0.00,Wunderground v.1.15,2013-02-11 09:58:00,
2013-02-11 04:03:00,48.7,34.6,29.96,WNW,291,4.0,9.0,58,0.00,,,0.00,Wunderground v.1.15,2013-02-11 10:03:00,
2013-02-11 04:08:00,48.6,34.5,29.97,SW,236,6.0,11.0,58,0.00,,,0.00,Wunderground v.1.15,2013-02-11 10:08:00,
2013-02-11 04:13:00,48.3,34.2,29.97,WNW,294,3.0,9.0,58,0.00,,,0.00,Wunderground v.1.15,2013-02-11 10:13:00,
2013-02-11 04:18:00,48.0,34.3,29.97,West,264,6.0,9.0,59,0.00,,,0.00,Wunderground v.1.15,2013-02-11 10:18:00,
2013-02-11 04:23:00,47.7,34.1,29.98,WNW,293,4.0,11.0,59,0.00,,,0.00,Wunderground v.1.15,2013-02-11 10:23:00,
2013-02-11 04:28:00,47.5,33.9,29.98,WNW,289,4.0,11.0,59,0.00,,,0.00,Wunderground v.1.15,2013-02-11 10:28:00,
2013-02-11 04:33:00,47.2,34.0,29.98,WNW,292,2.0,6.0,60,0.00,,,0.00,Wunderground v.1.15,2013-02-11 10:33:00,
2013-02-11 04:38:00,47.0,34.2,29.99,WNW,284,4.0,10.0,61,0.00,,,0.00,Wunderground v.1.15,2013-02-11 10:38:00,
2013-02-11 04:43:00,46.7,34.0,29.99,NW,307,6.0,10.0,61,0.00,,,0.00,Wunderground v.1.15,2013-02-11 10:43:00,
2013-02-11 04:48:00,46.7,34.0,30.00,WNW,301,6.0,13.0,61,0.00,,,0.00,Wunderground v.1.15,2013-02-11 10:48:00,
2013-02-11 04:53:00,46.4,33.7,30.00,WNW,287,5.0,7.0,61,0.00,,,0.00,Wunderground v.1.15,2013-02-11 10:53:00,
2013-02-11 04:58:00,46.1,33.4,30.01,West,281,5.0,9.0,61,0.00,,,0.00,Wunderground v.1.15,2013-02-11 10:58:00,
2013-02-11 05:03:00,45.9,33.2,30.00,NW,305,6.0,14.0,61,0.00,,,0.00,Wunderground v.1.15,2013-02-11 11:03:00,
2013-02-11 05:08:00,45.7,33.0,30.00,WNW,286,2.0,14.0,61,0.00,,,0.00,Wunderground v.1.15,2013-02-11 11:08:00,
2013-02-11 05:13:00,45.4,32.7,30.00,WNW,292,5.0,12.0,61,0.00,,,0.00,Wunderground v.1.15,2013-02-11 11:13:00,
2013-02-11 05:18:00,45.2,32.9,30.00,WNW,288,6.0,14.0,62,0.00,,,0.00,Wunderground v.1.15,2013-02-11 11:18:00,
2013-02-11 05:23:00,44.8,33.0,30.00,WNW,297,8.0,12.0,63,0.00,,,0.00,Wunderground v.1.15,2013-02-11 11:23:00,
2013-02-11 05:28:00,44.6,32.8,30.01,WNW,297,8.0,12.0,63,0.00,,,0.00,Wunderground v.1.15,2013-02-11 11:28:00,
2013-02-11 05:33:00,44.5,32.7,30.01,WNW,303,5.0,10.0,63,0.00,,,0.00,Wunderground v.1.15,2013-02-11 11:33:00,
2013-02-11 05:38:00,44.3,32.5,30.01,NW,309,7.0,12.0,63,0.00,,,0.00,Wunderground v.1.15,2013-02-11 11:38:00,
2013-02-11 05:43:00,44.2,31.6,30.02,WNW,291,7.0,13.0,61,0.00,,,0.00,Wunderground v.1.15,2013-02-11 11:43:00,
2013-02-11 05:48:00,43.9,31.7,30.02,NW,307,6.0,13.0,62,0.00,,,0.00,Wunderground v.1.15,2013-02-11 11:48:00,
2013-02-11 05:53:00,43.6,31.0,30.02,WNW,291,7.0,12.0,61,0.00,,,0.00,Wunderground v.1.15,2013-02-11 11:53:00,
2013-02-11 05:58:00,43.4,30.8,30.02,NW,306,12.0,14.0,61,0.00,,,0.00,Wunderground v.1.15,2013-02-11 11:58:00,
2013-02-11 06:03:00,43.2,30.6,30.02,WNW,296,5.0,13.0,61,0.00,,,0.00,Wunderground v.1.15,2013-02-11 12:03:00,
2013-02-11 06:08:00,43.0,30.5,30.03,WNW,290,7.0,13.0,61,0.00,,,0.00,Wunderground v.1.15,2013-02-11 12:08:00,
2013-02-11 06:13:00,42.9,30.4,30.04,WNW,300,12.0,12.0,61,0.00,,,0.00,Wunderground v.1.15,2013-02-11 12:13:00,
2013-02-11 06:18:00,42.7,30.2,30.04,NW,309,13.0,13.0,61,0.00,,,0.00,Wunderground v.1.15,2013-02-11 12:18:00,
2013-02-11 06:23:00,42.5,30.4,30.05,WNW,301,4.0,13.0,62,0.00,,,0.00,Wunderground v.1.15,2013-02-11 12:23:00,
2013-02-11 06:28:00,42.2,30.5,30.05,WNW,295,7.0,13.0,63,0.00,,,0.00,Wunderground v.1.15,2013-02-11 12:28:00,
2013-02-11 06:33:00,42.1,30.4,30.05,WNW,298,6.0,11.0,63,0.00,,,0.00,Wunderground v.1.15,2013-02-11 12:33:00,
2013-02-11 06:38:00,42.0,30.3,30.06,WNW,290,5.0,11.0,63,0.00,,,0.00,Wunderground v.1.15,2013-02-11 12:38:00,
2013-02-11 06:43:00,41.8,30.1,30.07,WNW,286,5.0,11.0,63,0.00,,,0.00,Wunderground v.1.15,2013-02-11 12:43:00,
2013-02-11 06:48:00,41.6,30.3,30.07,West,276,3.0,11.0,64,0.00,,,0.00,Wunderground v.1.15,2013-02-11 12:48:00,
2013-02-11 06:53:00,41.4,30.1,30.06,West,281,3.0,6.0,64,0.00,,,0.00,Wunderground v.1.15,2013-02-11 12:53:00,
2013-02-11 06:58:00,41.3,30.0,30.07,WNW,285,4.0,7.0,64,0.00,,,0.00,Wunderground v.1.15,2013-02-11 12:58:00,
2013-02-11 07:03:00,41.2,30.3,30.07,WNW,288,4.0,6.0,65,0.00,,,0.00,Wunderground v.1.15,2013-02-11 13:03:00,
2013-02-11 07:08:00,41.0,30.5,30.07,WNW,302,3.0,8.0,66,0.00,,,0.00,Wunderground v.1.15,2013-02-11 13:08:00,
2013-02-11 07:13:00,40.8,30.3,30.07,WNW,301,3.0,5.0,66,0.00,,,0.00,Wunderground v.1.15,2013-02-11 13:13:00,
2013-02-11 07:18:00,40.7,30.2,30.07,WNW,290,2.0,5.0,66,0.00,,,0.00,Wunderground v.1.15,2013-02-11 13:18:00,
2013-02-11 07:23:00,40.5,30.0,30.08,WNW,293,1.0,4.0,66,0.00,,,0.00,Wunderground v.1.15,2013-02-11 13:23:00,
2013-02-11 07:28:00,40.3,30.2,30.08,WNW,288,1.0,4.0,67,0.00,,,0.00,Wunderground v.1.15,2013-02-11 13:28:00,
2013-02-11 07:33:00,40.2,30.1,30.08,WNW,301,1.0,3.0,67,0.00,,,0.00,Wunderground v.1.15,2013-02-11 13:33:00,
2013-02-11 07:38:00,40.1,30.0,30.08,WSW,255,1.0,3.0,67,0.00,,,0.00,Wunderground v.1.15,2013-02-11 13:38:00,
2013-02-11 07:43:00,40.3,30.2,30.08,West,276,2.0,4.0,67,0.00,,,0.00,Wunderground v.1.15,2013-02-11 13:43:00,
2013-02-11 07:48:00,40.4,30.3,30.08,WNW,287,0.0,4.0,67,0.00,,,0.00,Wunderground v.1.15,2013-02-11 13:48:00,
2013-02-11 07:53:00,40.4,30.7,30.08,WNW,283,2.0,3.0,68,0.00,,,0.00,Wunderground v.1.15,2013-02-11 13:53:00,
2013-02-11 07:58:00,40.5,30.8,30.08,WSW,255,1.0,4.0,68,0.00,,,0.00,Wunderground v.1.15,2013-02-11 13:58:00,
2013-02-11 08:03:00,40.6,30.9,30.09,WNW,293,2.0,3.0,68,0.00,,,0.00,Wunderground v.1.15,2013-02-11 14:03:00,
2013-02-11 08:08:00,40.9,31.1,30.09,West,262,2.0,4.0,68,0.00,,,0.00,Wunderground v.1.15,2013-02-11 14:08:00,
2013-02-11 08:13:00,41.5,31.7,30.10,West,281,4.0,4.0,68,0.00,,,0.00,Wunderground v.1.15,2013-02-11 14:13:00,
2013-02-11 08:18:00,41.8,31.3,30.10,WSW,255,3.0,7.0,66,0.00,,,0.00,Wunderground v.1.15,2013-02-11 14:18:00,
2013-02-11 08:23:00,42.1,31.2,30.09,West,276,5.0,7.0,65,0.00,,,0.00,Wunderground v.1.15,2013-02-11 14:23:00,
2013-02-11 08:28:00,42.2,30.9,30.10,WNW,300,3.0,8.0,64,0.00,,,0.00,Wunderground v.1.15,2013-02-11 14:28:00,
2013-02-11 08:34:00,42.3,30.2,30.11,West,273,5.0,7.0,62,0.00,,,0.00,Wunderground v.1.15,2013-02-11 14:34:00,
2013-02-11 08:39:00,42.3,29.8,30.10,WNW,287,3.0,7.0,61,0.00,,,0.00,Wunderground v.1.15,2013-02-11 14:39:00,
2013-02-11 08:44:00,42.5,30.8,30.10,WSW,249,6.0,6.0,63,0.00,,,0.00,Wunderground v.1.15,2013-02-11 14:44:00,
2013-02-11 08:49:00,42.6,29.7,30.10,WNW,293,4.0,7.0,60,0.00,,,0.00,Wunderground v.1.15,2013-02-11 14:49:00,
2013-02-11 08:54:00,42.8,30.3,30.10,West,262,6.0,8.0,61,0.00,,,0.00,Wunderground v.1.15,2013-02-11 14:54:00,
2013-02-11 08:59:00,43.0,30.5,30.10,WNW,297,5.0,10.0,61,0.00,,,0.00,Wunderground v.1.15,2013-02-11 14:59:00,
2013-02-11 09:04:00,43.1,30.1,30.11,West,277,3.0,8.0,60,0.00,,,0.00,Wunderground v.1.15,2013-02-11 15:04:00,
2013-02-11 09:09:00,43.1,30.1,30.11,NW,308,10.0,13.0,60,0.00,,,0.00,Wunderground v.1.15,2013-02-11 15:09:00,
2013-02-11 09:14:00,43.1,30.1,30.11,West,260,5.0,10.0,60,0.00,,,0.00,Wunderground v.1.15,2013-02-11 15:14:00,
2013-02-11 09:19:00,43.3,30.3,30.11,WNW,290,2.0,10.0,60,0.00,,,0.00,Wunderground v.1.15,2013-02-11 15:19:00,
2013-02-11 09:24:00,43.7,30.3,30.12,NW,304,8.0,9.0,59,0.00,,,0.00,Wunderground v.1.15,2013-02-11 15:24:00,
2013-02-11 09:29:00,44.0,30.2,30.12,West,278,4.0,11.0,58,0.00,,,0.00,Wunderground v.1.15,2013-02-11 15:29:00,
2013-02-11 09:34:00,43.9,30.1,30.11,West,270,7.0,8.0,58,0.00,,,0.00,Wunderground v.1.15,2013-02-11 15:34:00,
2013-02-11 09:39:00,43.9,30.9,30.11,WNW,288,4.0,9.0,60,0.00,,,0.00,Wunderground v.1.15,2013-02-11 15:39:00,
2013-02-11 09:44:00,44.0,30.6,30.11,WNW,299,6.0,9.0,59,0.00,,,0.00,Wunderground v.1.15,2013-02-11 15:44:00,
2013-02-11 09:49:00,44.2,30.8,30.11,West,277,5.0,11.0,59,0.00,,,0.00,Wunderground v.1.15,2013-02-11 15:49:00,
2013-02-11 09:54:00,44.5,31.1,30.12,West,278,6.0,11.0,59,0.00,,,0.00,Wunderground v.1.15,2013-02-11 15:54:00,
2013-02-11 09:59:00,44.6,30.7,30.12,WNW,293,6.0,11.0,58,0.00,,,0.00,Wunderground v.1.15,2013-02-11 15:59:00,
2013-02-11 10:04:00,44.9,30.6,30.12,WSW,255,2.0,9.0,57,0.00,,,0.00,Wunderground v.1.15,2013-02-11 16:04:00,
2013-02-11 10:09:00,45.0,30.7,30.12,WSW,252,7.0,11.0,57,0.00,,,0.00,Wunderground v.1.15,2013-02-11 16:09:00,
2013-02-11 10:14:00,44.9,30.6,30.12,SW,224,6.0,13.0,57,0.00,,,0.00,Wunderground v.1.15,2013-02-11 16:14:00,
2013-02-11 10:19:00,45.0,31.1,30.12,NW,313,9.0,13.0,58,0.00,,,0.00,Wunderground v.1.15,2013-02-11 16:19:00,
2013-02-11 10:24:00,45.2,30.9,30.12,WNW,287,7.0,12.0,57,0.00,,,0.00,Wunderground v.1.15,2013-02-11 16:24:00,
2013-02-11 10:29:00,45.5,30.7,30.12,WNW,292,6.0,12.0,56,0.00,,,0.00,Wunderground v.1.15,2013-02-11 16:29:00,
2013-02-11 10:34:00,45.4,29.3,30.12,WNW,291,5.0,11.0,53,0.00,,,0.00,Wunderground v.1.15,2013-02-11 16:34:00,
2013-02-11 10:39:00,45.4,29.7,30.12,WNW,302,6.0,12.0,54,0.00,,,0.00,Wunderground v.1.15,2013-02-11 16:39:00,
2013-02-11 10:44:00,45.9,29.7,30.12,NW,313,8.0,13.0,53,0.00,,,0.00,Wunderground v.1.15,2013-02-11 16:44:00,
2013-02-11 10:49:00,46.1,31.3,30.12,NNW,339,8.0,13.0,56,0.00,,,0.00,Wunderground v.1.15,2013-02-11 16:49:00,
2013-02-11 10:54:00,46.3,31.0,30.12,WNW,297,6.0,11.0,55,0.00,,,0.00,Wunderground v.1.15,2013-02-11 16:54:00,
2013-02-11 10:59:00,46.5,30.7,30.12,NW,308,9.0,11.0,54,0.00,,,0.00,Wunderground v.1.15,2013-02-11 16:59:00,
2013-02-11 11:04:00,46.7,30.0,30.13,West,269,2.0,10.0,52,0.00,,,0.00,Wunderground v.1.15,2013-02-11 17:04:00,
2013-02-11 11:09:00,46.7,30.9,30.13,WNW,288,8.0,10.0,54,0.00,,,0.00,Wunderground v.1.15,2013-02-11 17:09:00,
2013-02-11 11:14:00,46.8,30.6,30.13,NW,307,6.0,12.0,53,0.00,,,0.00,Wunderground v.1.15,2013-02-11 17:14:00,
2013-02-11 11:19:00,47.1,31.3,30.13,WNW,293,6.0,12.0,54,0.00,,,0.00,Wunderground v.1.15,2013-02-11 17:19:00,
2013-02-11 11:24:00,47.4,31.1,30.13,WNW,294,5.0,11.0,53,0.00,,,0.00,Wunderground v.1.15,2013-02-11 17:24:00,
2013-02-11 11:29:00,47.6,30.8,30.14,NW,307,7.0,11.0,52,0.00,,,0.00,Wunderground v.1.15,2013-02-11 17:29:00,
2013-02-11 11:34:00,47.6,30.3,30.13,WNW,290,9.0,10.0,51,0.00,,,0.00,Wunderground v.1.15,2013-02-11 17:34:00,
2013-02-11 11:39:00,47.7,31.4,30.12,WNW,302,6.0,11.0,53,0.00,,,0.00,Wunderground v.1.15,2013-02-11 17:39:00,
2013-02-11 11:44:00,47.6,31.3,30.12,West,281,7.0,8.0,53,0.00,,,0.00,Wunderground v.1.15,2013-02-11 17:44:00,
2013-02-11 11:49:00,47.4,30.6,30.12,WNW,293,6.0,8.0,52,0.00,,,0.00,Wunderground v.1.15,2013-02-11 17:49:00,
2013-02-11 11:54:00,47.5,30.3,30.13,WNW,298,7.0,11.0,51,0.00,,,0.00,Wunderground v.1.15,2013-02-11 17:54:00,
2013-02-11 11:59:00,47.6,29.9,30.13,NW,305,10.0,13.0,50,0.00,,,0.00,Wunderground v.1.15,2013-02-11 17:59:00,
2013-02-11 12:04:00,47.8,30.0,30.13,WNW,291,4.0,11.0,50,0.00,,,0.00,Wunderground v.1.15,2013-02-11 18:04:00,
2013-02-11 12:09:00,48.0,30.2,30.12,WNW,295,4.0,11.0,50,0.00,,,0.00,Wunderground v.1.15,2013-02-11 18:09:00,
2013-02-11 12:14:00,48.1,30.3,30.13,WNW,287,6.0,11.0,50,0.00,,,0.00,Wunderground v.1.15,2013-02-11 18:14:00,
2013-02-11 12:19:00,48.3,29.5,30.12,WNW,302,4.0,11.0,48,0.00,,,0.00,Wunderground v.1.15,2013-02-11 18:19:00,
2013-02-11 12:24:00,48.8,30.5,30.12,WSW,256,4.0,10.0,49,0.00,,,0.00,Wunderground v.1.15,2013-02-11 18:24:00,
2013-02-11 12:29:00,49.2,30.8,30.12,WNW,295,5.0,10.0,49,0.00,,,0.00,Wunderground v.1.15,2013-02-11 18:29:00,
2013-02-11 12:34:00,49.5,30.6,30.13,WSW,254,8.0,12.0,48,0.00,,,0.00,Wunderground v.1.15,2013-02-11 18:34:00,
2013-02-11 12:39:00,49.4,31.5,30.13,WNW,299,5.0,14.0,50,0.00,,,0.00,Wunderground v.1.15,2013-02-11 18:39:00,
2013-02-11 12:44:00,49.9,32.5,30.13,WSW,249,8.0,11.0,51,0.00,,,0.00,Wunderground v.1.15,2013-02-11 18:44:00,
2013-02-11 12:49:00,49.8,32.4,30.13,West,277,7.0,12.0,51,0.00,,,0.00,Wunderground v.1.15,2013-02-11 18:49:00,
2013-02-11 12:54:00,49.7,31.8,30.13,West,278,7.0,11.0,50,0.00,,,0.00,Wunderground v.1.15,2013-02-11 18:54:00,
2013-02-11 12:59:00,49.7,31.8,30.12,WSW,239,3.0,11.0,50,0.00,,,0.00,Wunderground v.1.15,2013-02-11 18:59:00,
2013-02-11 13:04:00,50.2,32.8,30.12,NW,307,4.0,11.0,51,0.00,,,0.00,Wunderground v.1.15,2013-02-11 19:04:00,
2013-02-11 13:09:00,50.0,31.6,30.12,WNW,293,6.0,13.0,49,0.00,,,0.00,Wunderground v.1.15,2013-02-11 19:09:00,
2013-02-11 13:14:00,50.1,32.2,30.11,NW,305,6.0,11.0,50,0.00,,,0.00,Wunderground v.1.15,2013-02-11 19:14:00,
2013-02-11 13:19:00,50.7,32.2,30.12,NW,312,4.0,11.0,49,0.00,,,0.00,Wunderground v.1.15,2013-02-11 19:19:00,
2013-02-11 13:24:00,50.9,32.9,30.11,NW,318,4.0,10.0,50,0.00,,,0.00,Wunderground v.1.15,2013-02-11 19:24:00,
2013-02-11 13:29:00,50.8,31.3,30.11,WNW,300,4.0,12.0,47,0.00,,,0.00,Wunderground v.1.15,2013-02-11 19:29:00,
2013-02-11 13:34:00,50.9,31.4,30.11,WSW,237,4.0,9.0,47,0.00,,,0.00,Wunderground v.1.15,2013-02-11 19:34:00,
2013-02-11 13:39:00,51.2,31.1,30.11,NW,308,7.0,10.0,46,0.00,,,0.00,Wunderground v.1.15,2013-02-11 19:39:00,
2013-02-11 13:44:00,51.0,32.0,30.11,NW,312,6.0,8.0,48,0.00,,,0.00,Wunderground v.1.15,2013-02-11 19:44:00,
2013-02-11 13:49:00,51.5,31.9,30.11,WNW,295,6.0,12.0,47,0.00,,,0.00,Wunderground v.1.15,2013-02-11 19:49:00,
2013-02-11 13:54:00,51.4,31.8,30.11,NW,306,8.0,11.0,47,0.00,,,0.00,Wunderground v.1.15,2013-02-11 19:54:00,
2013-02-11 13:59:00,51.6,30.9,30.11,West,264,7.0,13.0,45,0.00,,,0.00,Wunderground v.1.15,2013-02-11 19:59:00,
2013-02-11 14:05:00,51.4,31.3,30.11,West,263,5.0,10.0,46,0.00,,,0.00,Wunderground v.1.15,2013-02-11 20:05:00,
2013-02-11 14:10:00,51.8,32.2,30.11,West,270,9.0,9.0,47,0.00,,,0.00,Wunderground v.1.15,2013-02-11 20:10:00,
2013-02-11 14:15:00,51.8,31.1,30.11,NW,312,6.0,11.0,45,0.00,,,0.00,Wunderground v.1.15,2013-02-11 20:15:00,
2013-02-11 14:20:00,51.8,31.1,30.11,WNW,294,8.0,8.0,45,0.00,,,0.00,Wunderground v.1.15,2013-02-11 20:20:00,
2013-02-11 14:25:00,51.9,31.2,30.11,NW,311,6.0,11.0,45,0.00,,,0.00,Wunderground v.1.15,2013-02-11 20:25:00,
2013-02-11 14:30:00,51.8,31.1,30.11,West,269,4.0,7.0,45,0.00,,,0.00,Wunderground v.1.15,2013-02-11 20:30:00,
2013-02-11 14:35:00,52.1,31.4,30.11,NW,311,8.0,11.0,45,0.00,,,0.00,Wunderground v.1.15,2013-02-11 20:35:00,
2013-02-11 14:40:00,52.0,30.2,30.11,West,271,4.0,7.0,43,0.00,,,0.00,Wunderground v.1.15,2013-02-11 20:40:00,
2013-02-11 14:45:00,52.0,31.8,30.11,WNW,297,8.0,15.0,46,0.00,,,0.00,Wunderground v.1.15,2013-02-11 20:45:00,
2013-02-11 14:50:00,52.1,31.4,30.11,SW,229,7.0,7.0,45,0.00,,,0.00,Wunderground v.1.15,2013-02-11 20:50:00,
2013-02-11 14:55:00,51.6,30.9,30.12,West,281,6.0,13.0,45,0.00,,,0.00,Wunderground v.1.15,2013-02-11 20:55:00,
2013-02-11 15:00:00,51.2,31.1,30.11,WNW,299,7.0,12.0,46,0.00,,,0.00,Wunderground v.1.15,2013-02-11 21:00:00,
2013-02-11 15:05:00,51.4,31.8,30.11,WNW,288,5.0,12.0,47,0.00,,,0.00,Wunderground v.1.15,2013-02-11 21:05:00,
2013-02-11 15:10:00,51.8,31.7,30.11,WNW,287,7.0,8.0,46,0.00,,,0.00,Wunderground v.1.15,2013-02-11 21:10:00,
2013-02-11 15:15:00,51.4,30.7,30.11,WNW,302,6.0,11.0,45,0.00,,,0.00,Wunderground v.1.15,2013-02-11 21:15:00,
2013-02-11 15:20:00,51.6,31.5,30.10,WNW,287,7.0,9.0,46,0.00,,,0.00,Wunderground v.1.15,2013-02-11 21:20:00,
2013-02-11 15:25:00,51.8,32.2,30.10,WNW,302,5.0,10.0,47,0.00,,,0.00,Wunderground v.1.15,2013-02-11 21:25:00,
2013-02-11 15:30:00,52.1,31.4,30.11,NW,314,10.0,11.0,45,0.00,,,0.00,Wunderground v.1.15,2013-02-11 21:30:00,
2013-02-11 15:35:00,52.0,31.8,30.10,WNW,298,9.0,11.0,46,0.00,,,0.00,Wunderground v.1.15,2013-02-11 21:35:00,
2013-02-11 15:40:00,52.0,31.3,30.11,WNW,301,4.0,9.0,45,0.00,,,0.00,Wunderground v.1.15,2013-02-11 21:40:00,
2013-02-11 15:45:00,52.1,32.5,30.10,NW,316,11.0,13.0,47,0.00,,,0.00,Wunderground v.1.15,2013-02-11 21:45:00,
2013-02-11 15:50:00,51.8,31.7,30.10,NW,309,7.0,10.0,46,0.00,,,0.00,Wunderground v.1.15,2013-02-11 21:50:00,
2013-02-11 15:55:00,51.7,32.1,30.10,NW,309,9.0,11.0,47,0.00,,,0.00,Wunderground v.1.15,2013-02-11 21:55:00,
2013-02-11 16:01:00,51.6,31.5,30.10,WNW,302,4.0,6.0,46,0.00,,,0.00,Wunderground v.1.15,2013-02-11 22:01:00,
2013-02-11 16:06:00,51.7,31.6,30.10,WNW,283,6.0,7.0,46,0.00,,,0.00,Wunderground v.1.15,2013-02-11 22:06:00,
2013-02-11 16:11:00,51.6,32.0,30.10,West,273,6.0,8.0,47,0.00,,,0.00,Wunderground v.1.15,2013-02-11 22:11:00,
2013-02-11 16:16:00,51.3,31.7,30.10,WNW,297,4.0,8.0,47,0.00,,,0.00,Wunderground v.1.15,2013-02-11 22:16:00,
2013-02-11 16:21:00,51.3,32.3,30.10,WNW,287,2.0,5.0,48,0.00,,,0.00,Wunderground v.1.15,2013-02-11 22:21:00,
2013-02-11 16:26:00,51.6,32.0,30.10,WNW,283,9.0,9.0,47,0.00,,,0.00,Wunderground v.1.15,2013-02-11 22:26:00,
2013-02-11 16:31:00,51.4,31.8,30.10,West,267,6.0,7.0,47,0.00,,,0.00,Wunderground v.1.15,2013-02-11 22:31:00,
2013-02-11 16:36:00,51.4,32.3,30.10,West,273,3.0,7.0,48,0.00,,,0.00,Wunderground v.1.15,2013-02-11 22:36:00,
2013-02-11 16:41:00,51.5,32.4,30.10,West,269,3.0,7.0,48,0.00,,,0.00,Wunderground v.1.15,2013-02-11 22:41:00,
2013-02-11 16:46:00,51.2,32.2,30.09,WNW,283,2.0,8.0,48,0.00,,,0.00,Wunderground v.1.15,2013-02-11 22:46:00,
2013-02-11 16:51:00,50.9,32.4,30.10,WNW,297,3.0,5.0,49,0.00,,,0.00,Wunderground v.1.15,2013-02-11 22:51:00,
2013-02-11 16:56:00,50.6,32.1,30.10,WNW,293,2.0,7.0,49,0.00,,,0.00,Wunderground v.1.15,2013-02-11 22:56:00,
2013-02-11 17:01:00,50.6,32.1,30.10,SW,235,3.0,5.0,49,0.00,,,0.00,Wunderground v.1.15,2013-02-11 23:01:00,
2013-02-11 17:06:00,50.6,32.6,30.10,West,269,2.0,5.0,50,0.00,,,0.00,Wunderground v.1.15,2013-02-11 23:06:00,
2013-02-11 17:11:00,50.3,32.4,30.10,West,259,4.0,6.0,50,0.00,,,0.00,Wunderground v.1.15,2013-02-11 23:11:00,
2013-02-11 17:16:00,49.8,32.4,30.10,West,266,1.0,6.0,51,0.00,,,0.00,Wunderground v.1.15,2013-02-11 23:16:00,
2013-02-11 17:21:00,49.5,32.1,30.10,West,262,3.0,4.0,51,0.00,,,0.00,Wunderground v.1.15,2013-02-11 23:21:00,
2013-02-11 17:26:00,49.0,32.6,30.10,WNW,283,3.0,5.0,53,0.00,,,0.00,Wunderground v.1.15,2013-02-11 23:26:00,
2013-02-11 17:31:00,48.7,32.3,30.11,West,281,2.0,2.0,53,0.00,,,0.00,Wunderground v.1.15,2013-02-11 23:31:00,
2013-02-11 17:36:00,48.4,32.5,30.11,WSW,250,0.0,4.0,54,0.00,,,0.00,Wunderground v.1.15,2013-02-11 23:36:00,
2013-02-11 17:41:00,48.0,32.6,30.11,SW,236,1.0,2.0,55,0.00,,,0.00,Wunderground v.1.15,2013-02-11 23:41:00,
2013-02-11 17:46:00,47.6,32.7,30.11,SW,232,1.0,2.0,56,0.00,,,0.00,Wunderground v.1.15,2013-02-11 23:46:00,
2013-02-11 17:51:00,47.3,32.4,30.11,WSW,242,1.0,2.0,56,0.00,,,0.00,Wunderground v.1.15,2013-02-11 23:51:00,
2013-02-11 17:56:00,47.1,32.6,30.11,WSW,243,1.0,2.0,57,0.00,,,0.00,Wunderground v.1.15,2013-02-11 23:56:00,
2013-02-11 18:02:00,46.8,32.4,30.11,WSW,257,0.0,1.0,57,0.00,,,0.00,Wunderground v.1.15,2013-02-12 00:02:00,
2013-02-11 18:07:00,46.7,32.3,30.12,WSW,246,1.0,1.0,57,0.00,,,0.00,Wunderground v.1.15,2013-02-12 00:07:00,
2013-02-11 18:12:00,46.4,32.4,30.12,WSW,247,0.0,1.0,58,0.00,,,0.00,Wunderground v.1.15,2013-02-12 00:12:00,
2013-02-11 18:17:00,46.1,32.1,30.12,SW,236,0.0,2.0,58,0.00,,,0.00,Wunderground v.1.15,2013-02-12 00:17:00,
2013-02-11 18:22:00,45.7,32.2,30.12,SW,215,1.0,1.0,59,0.00,,,0.00,Wunderground v.1.15,2013-02-12 00:22:00,
2013-02-11 18:27:00,45.3,32.2,30.12,SW,236,1.0,1.0,60,0.00,,,0.00,Wunderground v.1.15,2013-02-12 00:27:00,
2013-02-11 18:32:00,45.1,32.0,30.12,SW,228,0.0,1.0,60,0.00,,,0.00,Wunderground v.1.15,2013-02-12 00:32:00,
2013-02-11 18:37:00,44.9,32.3,30.12,SW,226,0.0,1.0,61,0.00,,,0.00,Wunderground v.1.15,2013-02-12 00:37:00,
2013-02-11 18:42:00,44.8,32.2,30.11,SW,226,0.0,0.0,61,0.00,,,0.00,Wunderground v.1.15,2013-02-12 00:42:00,
2013-02-11 18:47:00,44.4,32.2,30.11,SW,226,0.0,1.0,62,0.00,,,0.00,Wunderground v.1.15,2013-02-12 00:47:00,
2013-02-11 18:52:00,43.9,32.1,30.11,SW,226,0.0,1.0,63,0.00,,,0.00,Wunderground v.1.15,2013-02-12 00:52:00,
2013-02-11 18:57:00,43.5,32.1,30.11,SW,221,0.0,1.0,64,0.00,,,0.00,Wunderground v.1.15,2013-02-12 00:57:00,
2013-02-11 19:02:00,43.1,32.1,30.11,SSW,211,0.0,1.0,65,0.00,,,0.00,Wunderground v.1.15,2013-02-12 01:02:00,
2013-02-11 19:07:00,42.7,31.7,30.11,SW,216,0.0,1.0,65,0.00,,,0.00,Wunderground v.1.15,2013-02-12 01:07:00,
2013-02-11 19:12:00,42.9,31.9,30.12,SW,215,1.0,1.0,65,0.00,,,0.00,Wunderground v.1.15,2013-02-12 01:12:00,
2013-02-11 19:17:00,42.7,31.7,30.13,SW,222,1.0,2.0,65,0.00,,,0.00,Wunderground v.1.15,2013-02-12 01:17:00,
2013-02-11 19:22:00,42.6,32.0,30.13,SW,225,1.0,2.0,66,0.00,,,0.00,Wunderground v.1.15,2013-02-12 01:22:00,
2013-02-11 19:27:00,42.4,31.8,30.13,SW,226,1.0,2.0,66,0.00,,,0.00,Wunderground v.1.15,2013-02-12 01:27:00,
2013-02-11 19:32:00,42.3,31.7,30.13,SW,217,1.0,2.0,66,0.00,,,0.00,Wunderground v.1.15,2013-02-12 01:32:00,
2013-02-11 19:37:00,42.5,31.9,30.13,SW,218,1.0,2.0,66,0.00,,,0.00,Wunderground v.1.15,2013-02-12 01:37:00,
2013-02-11 19:42:00,42.4,31.8,30.14,SW,221,0.0,2.0,66,0.00,,,0.00,Wunderground v.1.15,2013-02-12 01:42:00,
2013-02-11 19:47:00,42.1,31.6,30.14,WSW,240,0.0,2.0,66,0.00,,,0.00,Wunderground v.1.15,2013-02-12 01:47:00,
2013-02-11 19:52:00,42.0,31.8,30.14,SSW,204,1.0,2.0,67,0.00,,,0.00,Wunderground v.1.15,2013-02-12 01:52:00,
2013-02-11 19:57:00,42.0,31.8,30.14,SW,222,1.0,2.0,67,0.00,,,0.00,Wunderground v.1.15,2013-02-12 01:57:00,
2013-02-11 20:02:00,41.9,31.7,30.13,SW,221,0.0,1.0,67,0.00,,,0.00,Wunderground v.1.15,2013-02-12 02:02:00,
2013-02-11 20:07:00,41.8,32.0,30.14,SW,224,1.0,2.0,68,0.00,,,0.00,Wunderground v.1.15,2013-02-12 02:07:00,
2013-02-11 20:12:00,41.5,31.7,30.14,SW,226,1.0,1.0,68,0.00,,,0.00,Wunderground v.1.15,2013-02-12 02:12:00,
2013-02-11 20:17:00,41.5,31.7,30.13,SW,225,1.0,2.0,68,0.00,,,0.00,Wunderground v.1.15,2013-02-12 02:17:00,
2013-02-11 20:22:00,41.5,31.7,30.14,WSW,245,0.0,1.0,68,0.00,,,0.00,Wunderground v.1.15,2013-02-12 02:22:00,
2013-02-11 20:27:00,41.5,31.7,30.14,SW,228,1.0,1.0,68,0.00,,,0.00,Wunderground v.1.15,2013-02-12 02:27:00,
2013-02-11 20:32:00,41.2,31.8,30.14,WSW,241,1.0,1.0,69,0.00,,,0.00,Wunderground v.1.15,2013-02-12 02:32:00,
2013-02-11 20:37:00,41.2,31.8,30.14,SW,233,1.0,2.0,69,0.00,,,0.00,Wunderground v.1.15,2013-02-12 02:37:00,
2013-02-11 20:42:00,41.2,31.8,30.14,SW,231,1.0,1.0,69,0.00,,,0.00,Wunderground v.1.15,2013-02-12 02:42:00,
2013-02-11 20:47:00,41.1,31.7,30.15,SW,229,0.0,2.0,69,0.00,,,0.00,Wunderground v.1.15,2013-02-12 02:47:00,
2013-02-11 20:52:00,41.1,31.7,30.14,SW,226,0.0,1.0,69,0.00,,,0.00,Wunderground v.1.15,2013-02-12 02:52:00,
2013-02-11 20:57:00,40.9,31.5,30.15,SW,226,0.0,1.0,69,0.00,,,0.00,Wunderground v.1.15,2013-02-12 02:57:00,
2013-02-11 21:02:00,40.9,31.9,30.15,WSW,245,0.0,1.0,70,0.00,,,0.00,Wunderground v.1.15,2013-02-12 03:02:00,
2013-02-11 21:07:00,41.0,31.6,30.15,WSW,246,1.0,1.0,69,0.00,,,0.00,Wunderground v.1.15,2013-02-12 03:07:00,
2013-02-11 21:12:00,40.8,31.4,30.15,WSW,250,1.0,1.0,69,0.00,,,0.00,Wunderground v.1.15,2013-02-12 03:12:00,
2013-02-11 21:17:00,40.9,31.9,30.15,WSW,257,0.0,2.0,70,0.00,,,0.00,Wunderground v.1.15,2013-02-12 03:17:00,
2013-02-11 21:22:00,40.7,31.7,30.15,WSW,257,0.0,1.0,70,0.00,,,0.00,Wunderground v.1.15,2013-02-12 03:22:00,
2013-02-11 21:27:00,40.4,31.4,30.16,SW,233,1.0,1.0,70,0.00,,,0.00,Wunderground v.1.15,2013-02-12 03:27:00,
2013-02-11 21:32:00,40.1,31.4,30.16,SW,218,1.0,2.0,71,0.00,,,0.00,Wunderground v.1.15,2013-02-12 03:32:00,
2013-02-11 21:37:00,40.4,31.7,30.16,SW,214,1.0,2.0,71,0.00,,,0.00,Wunderground v.1.15,2013-02-12 03:37:00,
2013-02-11 21:43:00,40.1,31.4,30.16,SW,222,1.0,2.0,71,0.00,,,0.00,Wunderground v.1.15,2013-02-12 03:43:00,
2013-02-11 21:48:00,39.8,31.5,30.16,SW,222,1.0,2.0,72,0.00,,,0.00,Wunderground v.1.15,2013-02-12 03:48:00,
2013-02-11 21:53:00,39.9,31.6,30.15,SW,234,0.0,1.0,72,0.00,,,0.00,Wunderground v.1.15,2013-02-12 03:53:00,
2013-02-11 21:58:00,39.6,31.3,30.16,SW,233,0.0,1.0,72,0.00,,,0.00,Wunderground v.1.15,2013-02-12 03:58:00,
2013-02-11 22:03:00,38.9,31.3,30.16,SW,233,0.0,0.0,74,0.00,,,0.00,Wunderground v.1.15,2013-02-12 04:03:00,
2013-02-11 22:08:00,38.7,31.5,30.16,SW,224,0.0,1.0,75,0.00,,,0.00,Wunderground v.1.15,2013-02-12 04:08:00,
2013-02-11 22:13:00,39.0,31.4,30.15,SW,219,0.0,1.0,74,0.00,,,0.00,Wunderground v.1.15,2013-02-12 04:13:00,
2013-02-11 22:18:00,39.1,31.5,30.16,SW,221,0.0,1.0,74,0.00,,,0.00,Wunderground v.1.15,2013-02-12 04:18:00,
2013-02-11 22:23:00,38.8,31.2,30.16,SW,221,0.0,0.0,74,0.00,,,0.00,Wunderground v.1.15,2013-02-12 04:23:00,
2013-02-11 22:28:00,38.1,31.2,30.16,SW,221,0.0,0.0,76,0.00,,,0.00,Wunderground v.1.15,2013-02-12 04:28:00,
2013-02-11 22:33:00,37.8,31.2,30.16,SW,221,0.0,0.0,77,0.00,,,0.00,Wunderground v.1.15,2013-02-12 04:33:00,
2013-02-11 22:38:00,37.5,30.9,30.16,SW,221,0.0,0.0,77,0.00,,,0.00,Wunderground v.1.15,2013-02-12 04:38:00,
2013-02-11 22:43:00,37.4,31.2,30.16,SW,221,0.0,0.0,78,0.00,,,0.00,Wunderground v.1.15,2013-02-12 04:43:00,
2013-02-11 22:48:00,37.2,31.0,30.16,SW,221,0.0,0.0,78,0.00,,,0.00,Wunderground v.1.15,2013-02-12 04:48:00,
2013-02-11 22:53:00,37.3,31.1,30.16,SW,221,0.0,1.0,78,0.00,,,0.00,Wunderground v.1.15,2013-02-12 04:53:00,
2013-02-11 22:58:00,37.7,31.1,30.16,WSW,242,0.0,1.0,77,0.00,,,0.00,Wunderground v.1.15,2013-02-12 04:58:00,
2013-02-11 23:00:00,37.8,31.2,30.16,West,267,0.0,1.0,77,0.00,,,0.00,Wunderground v.1.15,2013-02-12 05:00:00,
2013-02-11 23:05:00,38.4,31.5,30.16,WSW,246,0.0,2.0,76,0.00,,,0.00,Wunderground v.1.15,2013-02-12 05:05:00,
2013-02-11 23:10:00,38.3,31.1,30.16,WSW,246,0.0,0.0,75,0.00,,,0.00,Wunderground v.1.15,2013-02-12 05:10:00,
2013-02-11 23:15:00,37.8,30.9,30.16,WSW,246,0.0,0.0,76,0.00,,,0.00,Wunderground v.1.15,2013-02-12 05:15:00,
2013-02-11 23:20:00,37.4,30.8,30.16,WSW,245,0.0,0.0,77,0.00,,,0.00,Wunderground v.1.15,2013-02-12 05:20:00,
2013-02-11 23:25:00,36.9,30.7,30.16,WSW,246,0.0,1.0,78,0.00,,,0.00,Wunderground v.1.15,2013-02-12 05:25:00,
2013-02-11 23:30:00,36.3,30.4,30.16,WSW,245,0.0,0.0,79,0.00,,,0.00,Wunderground v.1.15,2013-02-12 05:30:00,
2013-02-11 23:35:00,36.1,30.5,30.17,WSW,245,0.0,1.0,80,0.00,,,0.00,Wunderground v.1.15,2013-02-12 05:35:00,
2013-02-11 23:40:00,36.1,30.5,30.17,WSW,245,0.0,1.0,80,0.00,,,0.00,Wunderground v.1.15,2013-02-12 05:40:00,
2013-02-11 23:45:00,36.2,30.6,30.16,WSW,245,0.0,1.0,80,0.00,,,0.00,Wunderground v.1.15,2013-02-12 05:45:00,
2013-02-11 23:50:00,35.7,30.1,30.16,WSW,245,0.0,0.0,80,0.00,,,0.00,Wunderground v.1.15,2013-02-12 05:50:00,
2013-02-11 23:55:00,35.0,29.5,30.16,NE,49,3.0,4.0,80,0.00,,,0.00,Wunderground v.1.15,2013-02-12 05:55:00,